Theta_e
303 303 303 302 302 302 302 301 301 301 301 301 301 301 301 301 301 292 289 291 286 280 282 285 285 279 279 278 273 275 274 276 276 272 274 272 273 271 271 275 273 272 271 269 271 269 265 281 279 276 278 280 279 276
302 302 302 301 301 301 301 301 301 301 301 301 301 300 301 301 300 295 286 291 291 282 281 286 286 286 285 284 279 276 276 277 282 278 273 271 273 268 266 267 275 269 277 275 276 273 280 281 282 282 282 281 279 274
301 301 301 301 301 301 300 300 300 299 299 300 300 300 300 299 299 295 287 287 284 276 278 280 281 285 286 285 286 275 278 284 283 284 280 277 273 270 268 267 269 274 276 272 275 280 279 280 282 284 283 281 279 279
300 300 300 300 300 299 299 299 299 299 299 299 300 300 299 299 298 296 287 287 284 283 269 276 286 282 285 285 285 284 282 283 284 283 276 274 273 275 269 271 271 275 274 274 276 278 280 281 281 282 281 280 280 280
300 300 300 299 298 298 298 299 299 299 299 299 299 299 298 298 298 293 289 288 288 280 273 276 281 282 283 283 281 283 283 282 280 277 277 274 270 269 268 270 265 273 273 270 271 279 280 280 282 281 280 279 279 276
299 299 299 298 298 298 298 298 299 299 299 299 299 298 297 298 297 289 280 288 289 287 274 271 278 278 280 280 279 281 282 282 281 274 275 267 272 278 270 270 271 272 276 282 280 283 282 282 280 280 278 277 276 273
299 299 298 298 297 297 298 298 298 298 299 299 299 296 297 297 289 284 282 288 292 286 274 269 271 277 276 276 280 281 281 280 280 276 270 266 270 278 268 269 272 270 272 276 279 278 276 276 275 278 277 275 274 269
298 298 297 297 297 297 298 298 298 298 299 298 297 295 296 296 292 286 289 292 289 283 281 273 271 272 277 272 271 280 278 278 270 272 269 273 270 275 270 267 263 265 270 275 277 277 277 275 275 273 271 268 267 264
296 297 297 297 297 297 297 298 298 298 298 297 294 293 285 283 281 282 292 292 290 283 273 275 265 264 274 272 269 274 279 273 272 272 269 273 265 267 268 264 262 264 269 276 272 275 275 273 267 267 264 262 263 261
297 297 297 297 297 297 297 298 298 298 297 293 285 275 269 283 290 290 284 280 281 280 279 275 273 272 272 269 268 267 269 271 270 267 273 268 264 262 260 262 261 263 273 271 270 272 271 270 269 267 262 261 261 260
298 298 297 297 298 297 297 297 298 297 292 283 275 271 279 289 282 277 274 271 273 272 276 276 271 268 273 268 268 269 264 264 265 265 266 261 262 263 257 258 259 258 269 274 275 274 271 270 268 267 265 264 263 262
298 297 297 297 297 298 298 298 297 288 283 287 286 287 285 276 271 264 262 265 266 266 271 268 270 272 271 276 274 265 264 262 260 266 264 259 263 258 258 269 264 263 267 266 267 269 269 268 267 267 265 263 261 259
298 298 298 298 298 298 298 298 297 296 288 277 271 271 274 267 262 263 261 262 264 270 269 271 269 272 273 276 267 266 266 262 266 263 262 263 260 258 262 268 262 262 265 267 268 269 269 267 267 265 262 260 258 259
298 298 298 298 298 298 298 297 296 291 280 270 271 265 265 258 263 269 270 269 272 270 268 268 270 272 272 272 269 266 266 267 261 263 260 266 266 268 266 263 265 265 265 265 265 265 266 267 265 265 265 263 263 262
299 299 299 299 298 298 297 296 295 286 278 270 269 265 263 265 266 272 273 272 275 275 275 274 271 272 270 272 271 267 265 259 262 262 266 269 268 269 269 268 268 267 267 267 266 266 266 266 264 263 263 263 263 263
298 299 296 298 297 297 297 296 288 285 282 277 274 271 265 271 267 267 272 274 277 276 277 276 273 271 269 268 266 264 260 259 263 268 269 269 269 269 269 270 269 268 268 267 266 266 265 265 264 264 263 262 261 261
298 293 297 297 298 298 297 289 284 282 279 275 274 267 267 264 269 272 275 276 278 276 273 273 270 269 271 268 267 265 262 265 267 267 268 267 267 267 268 268 268 268 267 266 265 265 265 265 264 263 261 262 262 262
293 294 297 298 297 295 287 287 283 281 276 271 271 273 270 273 272 273 275 275 276 276 276 273 276 271 269 267 266 262 264 266 268 267 266 266 266 267 267 266 267 266 265 266 265 265 265 264 262 262 262 262 262 262
295 295 297 297 295 287 283 283 284 277 274 266 267 268 274 277 278 280 280 277 279 280 278 276 271 262 261 262 261 262 262 263 262 266 265 265 265 265 264 265 266 265 265 264 263 264 264 263 262 262 262 262 261 260
295 295 295 295 293 285 281 281 284 278 271 271 268 271 274 272 274 273 273 274 276 270 260 260 259 261 261 262 262 262 262 262 262 262 262 263 263 263 263 263 263 263 264 263 263 265 263 262 262 262 262 262 259 259
292 290 293 290 286 285 281 277 278 270 275 275 273 274 273 273 268 266 263 265 260 259 259 261 262 263 263 263 263 262 261 261 259 259 260 259 261 261 261 262 262 262 260 261 260 260 261 260 260 261 259 260 261 259
282 290 282 286 284 282 280 276 275 275 273 274 272 272 271 268 266 265 264 260 259 260 262 262 263 264 263 261 261 260 260 260 260 259 262 260 258 259 259 260 259 258 258 259 260 259 260 260 261 262 261 260 259 258
285 283 279 274 272 271 271 273 269 269 266 265 264 263 263 263 265 265 257 257 259 262 263 263 262 263 260 259 259 258 256 255 255 256 257 257 257 259 259 258 258 255 255 257 260 260 259 262 260 260 259 256 256 256
281 269 265 261 258 259 262 260 259 260 261 257 254 254 259 257 257 252 249 254 258 262 261 259 259 257 254 252 254 255 256 256 254 253 255 254 254 255 256 256 257 257 257 257 257 257 258 256 260 255 256 253 253 254
266 260 258 254 252 256 254 254 253 255 250 248 252 253 253 252 249 246 250 255 257 256 256 255 254 254 250 249 253 254 256 254 251 251 255 252 249 252 255 255 256 256 257 249 252 255 255 255 254 254 254 253 253 253
255 254 255 250 251 253 250 251 249 251 248 246 248 248 246 246 248 250 253 253 253 251 251 251 251 252 252 254 251 251 253 252 250 249 254 253 251 249 251 251 251 254 256 253 250 252 254 255 254 253 254 255 260 258
252 251 252 257 254 253 253 254 254 249 246 248 247 248 245 245 245 253 255 254 253 253 253 254 254 254 253 253 254 254 253 249 251 254 255 254 254 254 253 250 250 254 255 255 254 255 255 255 256 256 255 256 256 256
252 251 251 251 250 249 248 247 246 248 248 251 250 247 247 249 253 255 256 254 252 248 247 248 250 251 251 252 252 247 250 247 248 249 250 252 253 253 252 253 254 261 261 261 260 260 259 258 257 256 256 256 257 259
251 252 252 248 243 244 248 252 250 253 255 252 250 249 251 255 253 252 255 252 245 247 248 250 252 242 245 247 248 248 248 245 247 249 249 253 254 256 251 251 252 254 255 255 261 264 263 263 263 263 262 259 258 258
249 248 247 241 246 250 253 252 249 246 248 249 248 250 251 251 253 252 251 248 249 250 252 249 246 245 251 246 251 252 250 249 251 253 253 254 254 257 257 256 256 257 257 257 256 255 261 259 259 256 256 255 255 255
248 246 246 245 248 249 246 244 241 245 241 241 240 244 247 248 251 252 253 253 253 244 245 250 251 249 248 251 250 252 253 253 253 254 255 255 254 254 255 257 258 259 258 257 255 254 254 254 254 254 254 254 253 256
249 245 246 248 250 246 244 243 241 241 240 240 242 240 244 245 247 252 252 249 246 248 255 256 249 255 257 256 256 256 263 259 256 257 254 255 255 256 257 258 260 261 259 255 255 255 255 254 254 254 254 254 252 251
246 244 240 243 247 249 246 244 244 244 242 242 244 244 245 247 249 253 252 253 257 257 257 257 258 259 259 256 256 256 262 258 259 265 268 268 268 267 266 262 262 263 259 255 254 254 254 253 254 253 252 252 252 251
Wind_Speed
18 18 17 16 15 15 16 17 16 16 17 17 18 18 18 19 19 4 0 4 3 3 2 3 3 1 2 3 2 5 5 5 4 5 1 3 2 3 3 2 2 3 2 4 1 3 7 1 2 5 5 4 5 3
17 17 16 14 14 15 15 15 15 15 16 16 16 17 17 16 16 7 3 3 2 4 4 0 1 2 2 3 3 2 2 2 1 2 3 2 3 3 2 5 2 4 5 3 5 4 2 3 3 5 8 6 4 3
16 15 14 13 14 14 15 15 14 15 15 15 16 16 15 14 13 6 0 3 4 4 4 3 3 4 1 2 2 4 2 1 0 1 2 3 6 4 2 6 3 5 4 3 2 2 3 5 8 2 3 4 5 3
15 13 12 13 13 13 13 14 14 14 15 15 16 16 16 13 10 5 3 3 4 2 4 5 1 2 3 1 3 3 1 2 2 1 2 3 3 4 4 5 4 6 2 3 4 2 6 4 7 5 4 4 4 3
12 11 12 12 11 12 12 12 13 14 15 15 15 14 14 11 7 4 3 3 1 5 3 4 5 2 2 4 5 3 1 3 2 2 4 5 3 2 2 0 4 4 7 5 6 8 3 7 7 6 5 4 3 3
10 10 10 11 11 12 12 13 14 15 15 15 14 12 10 6 3 3 3 3 3 2 4 3 4 3 3 4 4 2 3 3 2 3 3 4 5 2 3 4 8 5 3 5 3 10 7 10 7 3 5 5 1 1
10 10 11 11 12 13 14 15 16 17 18 17 16 10 8 2 3 2 3 2 6 2 4 5 5 3 2 3 1 2 1 2 2 3 3 3 3 3 3 7 5 4 4 3 4 7 5 3 5 5 7 6 5 3
9 9 10 11 12 13 15 16 17 18 18 19 11 4 4 9 6 1 1 6 2 2 2 3 5 4 2 1 1 1 2 1 2 3 2 3 3 2 6 7 5 5 3 5 7 6 5 5 8 5 4 3 2 2
9 10 11 12 13 14 15 16 17 19 20 13 6 4 4 4 1 2 11 6 1 2 3 2 4 5 2 1 1 1 2 3 2 3 3 2 2 7 8 6 3 4 4 5 5 6 7 6 4 1 3 3 3 1
10 11 12 13 13 14 15 16 18 19 18 6 5 5 4 1 7 7 3 1 0 0 1 3 1 4 4 1 2 2 2 2 3 5 2 2 6 5 7 7 5 6 3 3 4 5 4 3 2 2 4 5 3 2
11 12 13 13 14 14 15 16 18 15 9 5 4 1 4 5 2 2 1 1 1 3 4 4 4 2 2 3 3 2 2 2 2 6 3 4 6 6 3 3 4 5 4 1 2 4 2 2 4 5 3 2 1 3
14 15 15 15 16 16 16 15 15 3 2 3 4 2 2 3 2 4 3 3 2 5 2 3 4 5 2 2 2 3 3 2 7 1 2 5 7 5 3 4 2 3 3 3 2 4 5 5 5 4 4 3 2 2
14 16 16 16 17 18 18 18 8 8 3 4 5 4 3 3 2 5 4 4 3 3 3 3 2 3 2 2 1 2 3 6 1 1 5 8 5 5 7 6 4 2 2 2 2 2 3 3 3 2 2 3 2 2
15 18 19 19 20 20 18 11 2 4 5 4 4 7 5 4 5 5 4 3 4 1 1 2 0 3 3 3 3 4 5 1 2 4 8 5 8 10 9 5 6 7 5 4 1 1 0 1 2 2 2 2 1 2
19 19 19 19 19 16 11 8 4 3 3 2 3 7 6 6 5 4 3 2 4 2 2 2 2 2 3 4 5 1 2 5 7 8 5 3 4 1 3 3 5 4 3 3 2 3 3 3 4 4 5 5 4 4
20 21 6 10 12 15 15 6 3 3 3 4 6 4 3 3 5 2 4 6 5 4 2 2 4 3 5 4 5 8 5 9 4 3 7 6 10 10 8 7 7 6 5 5 5 4 3 3 4 3 3 4 4 4
21 3 9 20 22 19 18 3 2 5 6 6 7 2 3 2 6 5 4 4 5 5 4 4 6 10 1 4 4 5 2 5 6 6 7 11 12 10 8 8 7 5 5 4 3 3 2 2 2 2 3 4 4 4
6 9 17 20 15 11 3 6 5 6 8 6 4 6 4 4 3 4 5 3 4 4 3 5 4 7 6 5 3 4 4 6 5 5 6 7 9 8 7 7 5 5 4 3 3 3 2 2 3 3 5 5 5 5
11 12 18 19 9 1 3 4 4 5 8 3 4 3 3 3 6 10 8 4 6 3 3 2 2 6 5 4 4 4 5 6 5 4 5 7 8 8 8 8 5 6 5 4 4 3 1 3 3 3 4 5 4 5
22 20 17 14 10 2 4 3 1 4 4 5 3 4 3 2 4 3 4 5 3 5 8 6 3 2 2 3 3 3 4 6 6 4 6 6 6 7 8 7 6 8 4 5 5 9 1 3 3 3 4 5 4 5
11 5 12 7 1 5 4 4 3 2 3 2 3 4 3 4 3 5 5 6 6 5 3 2 2 3 2 2 4 4 4 5 4 3 5 5 6 6 5 6 6 6 6 5 4 5 5 3 4 4 2 3 4 4
3 13 2 2 2 3 2 4 3 4 2 3 4 3 3 2 3 4 2 7 4 2 2 1 2 1 2 2 3 4 5 5 4 5 8 8 5 6 6 6 6 5 5 5 5 3 4 4 5 3 3 4 6 5
9 8 4 6 6 6 4 4 5 4 3 5 4 5 3 3 3 2 5 2 2 1 1 1 3 2 3 2 3 3 3 3 3 4 5 4 5 5 5 6 5 5 6 6 6 5 4 9 7 6 2 5 5 6
5 5 4 3 4 4 5 6 4 5 5 6 5 6 5 3 3 6 3 1 1 1 0 2 2 2 3 3 1 1 1 1 2 3 3 4 6 5 5 6 6 5 6 6 5 5 4 3 10 5 6 5 5 7
7 8 7 7 5 7 7 8 7 7 3 4 6 5 5 5 4 3 1 3 2 2 1 1 2 0 3 2 3 3 3 2 1 3 5 3 3 5 6 5 6 5 5 1 3 3 5 5 4 6 7 5 8 10
7 5 4 3 4 3 2 3 3 3 2 5 3 5 4 4 4 4 3 3 3 3 3 3 3 1 2 3 3 2 3 2 2 2 6 3 3 4 7 7 6 8 3 3 3 5 9 8 7 9 10 12 17 13
4 4 4 1 2 1 3 2 2 3 1 1 4 5 5 4 5 5 2 2 3 4 3 3 4 4 4 4 3 4 3 3 5 5 6 7 8 6 6 6 7 6 3 7 7 8 9 10 10 11 11 10 9 9
3 1 2 4 2 1 3 1 2 4 4 3 2 2 3 7 6 4 5 3 4 2 3 3 4 4 4 5 4 2 5 2 4 5 5 5 6 6 6 6 7 17 11 8 8 9 9 9 10 12 12 11 10 8
1 0 2 3 3 1 5 6 5 4 2 4 5 4 6 5 3 3 3 3 2 3 1 4 5 0 4 4 4 4 4 1 2 6 8 9 9 8 3 4 6 6 6 7 18 18 13 12 12 10 7 3 4 5
3 1 3 1 2 5 5 5 3 3 1 2 1 4 4 5 5 2 2 2 2 5 5 4 3 2 5 3 6 7 4 5 6 6 7 9 8 8 9 10 9 8 6 7 8 10 17 11 11 6 7 5 4 4
1 2 1 2 5 4 3 2 3 1 2 1 1 3 4 6 7 4 5 5 5 2 1 5 6 6 6 8 7 7 9 5 8 10 10 7 8 9 11 11 10 7 7 7 7 7 7 8 7 8 8 8 9 10
1 2 3 3 5 3 3 3 2 2 3 2 3 1 4 3 5 5 3 4 3 3 12 9 5 10 9 9 7 7 16 7 5 7 10 8 8 10 12 11 10 8 6 5 6 6 8 8 7 7 8 9 8 8
1 0 1 3 4 4 3 5 4 6 2 3 4 4 3 3 8 6 3 7 7 6 7 8 9 9 9 7 8 8 12 6 11 18 21 21 21 18 11 5 6 3 4 4 5 5 7 8 8 7 7 8 8 8
Wind_Direction
86 79 71 64 58 51 45 42 37 34 31 27 25 24 23 22 18 50 279 5 94 113 313 34 359 30 30 69 112 279 31 343 1 33 20 295 290 279 334 282 235 209 226 232 325 283 292 130 100 200 133 87 122 131
77 72 66 57 51 46 42 37 30 27 23 20 17 16 14 15 16 32 23 344 349 88 205 252 275 199 198 204 150 334 182 301 321 328 355 7 309 347 177 270 295 289 203 237 205 237 19 349 85 120 129 145 143 130
70 65 59 51 44 39 33 27 21 17 16 13 8 5 3 4 7 51 164 329 46 57 345 41 246 227 37 182 167 124 279 251 167 55 320 267 251 127 238 249 239 278 177 227 350 132 109 97 87 101 137 124 132 174
62 57 51 46 39 30 25 19 15 11 7 1 358 360 355 357 0 52 58 325 78 101 104 273 304 237 150 127 75 65 143 100 177 178 227 239 238 168 232 225 195 206 30 233 250 102 125 167 184 147 118 107 132 147
56 50 44 37 28 22 17 13 5 2 359 355 351 351 346 351 4 71 79 16 53 113 233 277 301 238 104 115 98 64 237 226 212 241 227 239 262 55 251 212 253 186 214 166 233 183 139 173 154 138 140 157 148 159
47 44 35 22 16 10 2 358 353 349 347 344 343 343 336 337 105 86 28 359 4 56 75 330 289 251 132 101 121 211 199 213 237 194 240 265 251 200 263 252 252 233 268 232 198 158 163 152 128 135 131 118 103 141
31 28 18 8 3 358 354 349 347 344 340 340 342 345 331 42 70 116 162 337 358 73 72 326 319 290 150 108 181 204 204 246 207 246 246 205 251 227 224 244 243 278 278 333 68 116 89 163 137 84 100 76 48 40
24 12 3 359 354 352 349 346 343 340 339 338 344 345 46 85 92 112 38 352 32 94 116 262 269 335 165 281 288 190 229 214 280 230 309 226 315 244 257 252 280 272 284 63 50 39 99 128 76 55 52 44 91 124
4 1 355 350 347 346 343 341 340 339 337 345 353 80 49 45 56 250 303 314 91 159 177 214 173 242 9 256 158 276 220 252 249 233 240 162 265 224 231 220 265 255 198 160 131 116 91 81 140 51 29 287 153 271
353 348 343 339 339 338 335 335 339 340 340 12 43 47 351 257 305 316 17 23 122 342 245 245 135 252 105 26 316 52 312 252 259 250 300 213 254 257 229 220 234 258 255 192 170 125 145 165 132 174 203 244 179 201
342 336 334 331 329 329 329 333 337 343 20 24 13 300 229 353 31 34 226 149 354 255 216 229 183 197 284 116 220 167 244 289 275 263 143 277 276 251 242 243 244 227 220 195 115 123 143 123 157 167 183 239 29 32
332 327 327 326 320 320 320 325 338 40 196 242 270 328 339 45 25 69 257 303 206 238 253 177 219 190 260 150 163 297 188 44 247 237 78 270 255 255 212 199 238 150 124 103 105 136 146 158 186 176 149 159 175 220
322 317 319 316 313 315 317 315 324 335 63 28 42 359 37 294 357 171 239 292 289 224 224 190 222 158 48 104 213 124 233 233 39 54 233 232 249 234 205 198 244 234 190 184 208 181 156 144 165 142 168 226 218 243
313 309 310 313 313 316 323 326 324 42 58 65 26 301 172 283 248 200 207 220 246 174 239 177 166 176 170 186 190 194 233 132 267 231 238 247 221 208 196 192 152 178 183 152 124 75 116 109 59 39 358 337 39 332
306 302 300 302 302 313 304 289 137 68 104 234 108 247 223 234 247 230 212 260 209 179 173 306 300 155 196 222 194 176 227 240 209 227 232 303 312 171 92 81 91 95 95 88 64 52 22 14 12 356 21 49 23 340
305 299 267 289 293 296 291 239 145 148 188 201 227 249 247 280 277 262 204 244 168 169 140 219 244 236 217 198 179 213 159 222 256 338 350 356 40 50 55 59 60 61 62 68 58 39 25 41 33 26 36 26 350 322
298 217 312 301 299 283 287 269 169 213 207 210 237 225 185 264 228 233 198 226 162 146 206 199 217 216 138 220 214 183 205 14 356 17 31 37 40 40 40 48 39 60 65 69 65 27 16 60 58 66 17 348 333 322
272 299 293 307 306 284 219 194 203 215 223 227 218 223 207 214 226 262 243 136 156 200 207 223 222 206 210 211 86 17 354 336 349 33 36 29 28 28 34 24 36 43 14 34 32 345 357 49 18 3 338 338 319 349
303 313 318 318 318 309 250 228 211 249 230 214 263 251 215 238 232 255 280 268 223 211 229 241 324 21 33 28 352 3 353 355 330 343 59 44 25 16 16 4 17 19 359 38 2 328 44 43 15 350 335 325 353 334
309 311 310 308 319 245 263 253 201 252 245 247 5 333 280 308 335 358 17 359 10 40 40 44 38 18 8 13 5 2 354 339 342 349 1 11 16 359 7 355 10 351 3 355 339 340 79 13 355 348 319 360 342 332
307 261 295 291 225 204 243 270 243 241 306 60 263 354 345 313 13 10 8 350 62 34 57 38 71 97 81 56 29 11 3 355 3 338 348 339 356 348 348 351 2 347 342 325 327 323 356 334 311 296 291 324 313 329
286 336 300 321 252 261 219 24 310 321 3 353 337 317 246 307 8 31 24 42 50 24 16 1 1 5 94 61 51 29 359 350 351 348 360 360 339 341 343 344 340 331 320 313 309 312 319 305 295 316 327 310 340 309
342 12 47 11 26 16 306 353 23 349 353 312 350 328 358 12 28 55 65 81 119 2 339 356 332 16 101 70 78 30 7 1 349 346 338 327 312 308 318 319 319 308 309 307 314 308 300 305 330 313 322 323 302 299
24 52 51 49 54 306 347 353 354 11 10 16 4 316 348 308 343 50 74 335 223 220 338 341 344 353 9 17 359 288 300 347 284 277 272 300 315 319 316 301 297 284 279 289 300 296 294 278 316 319 300 285 289 286
70 336 63 342 343 21 10 350 347 27 324 347 4 318 321 354 42 44 200 252 244 254 220 319 343 242 176 263 293 291 267 162 319 309 303 219 259 300 307 305 297 283 284 315 297 293 306 295 288 287 287 281 276 282
71 307 76 231 286 71 235 344 345 311 356 336 286 274 13 45 23 255 233 218 235 225 219 199 203 231 265 204 222 269 256 184 128 248 282 260 249 235 287 297 306 303 268 202 217 292 298 291 283 283 287 289 303 317
81 294 308 312 143 98 341 335 1 90 4 270 281 341 26 348 267 252 267 225 211 232 208 198 188 196 216 243 245 250 255 188 205 246 288 288 278 259 234 243 268 258 283 278 272 266 268 276 279 279 277 282 278 275
166 124 147 286 1 52 176 295 204 223 232 228 79 348 219 210 245 229 211 227 211 197 224 245 225 215 224 239 242 282 293 296 297 280 268 256 247 252 238 235 242 271 276 287 279 265 263 263 261 265 268 268 274 277
127 255 120 321 333 326 213 197 225 228 189 137 153 235 247 232 236 225 244 208 146 122 263 277 277 196 266 263 256 229 226 173 24 310 305 307 316 307 247 243 256 262 259 264 289 298 294 285 276 280 305 222 272 288
258 169 97 114 182 240 239 177 229 256 240 205 244 315 291 274 252 208 165 144 167 217 224 214 235 170 246 196 268 288 238 199 205 215 267 286 281 289 297 293 288 283 272 264 272 286 304 315 305 319 321 309 299 289
99 74 53 197 244 248 242 300 326 334 7 297 297 194 252 300 303 251 212 207 203 153 150 262 254 218 226 251 233 260 276 242 213 222 233 251 261 266 272 274 274 274 267 260 260 265 272 290 285 286 287 286 286 308
33 177 159 264 275 293 14 25 318 322 316 355 279 338 310 336 271 277 230 126 110 213 237 230 221 257 233 230 240 236 248 258 227 230 233 251 256 255 261 266 268 259 247 241 254 258 265 268 275 273 279 283 279 277
70 98 342 316 307 316 348 357 1 326 308 276 258 204 220 221 249 271 283 210 206 210 225 227 231 240 246 236 237 252 262 241 249 270 282 301 304 292 290 288 284 212 220 240 259 265 278 279 283 283 284 287 288 287